Location: Casone le Fosse
(44.6547°N, 12.1103°E)
Time: 04:13:04
(UTC+00:00)

ATLAS 2AS CENTAUR R/B - Pass Details

Date: 29 October 2020
Orbit: 939 x 1273 km, 63.7° (Epoch: 23 November)

Event Time Altitude Azimuth Distance (km) Brightness Sun altitude
Rises 18:15:05 0° 322° (NW) 4,156 6.4 -23.8°
Reaches altitude 10° 18:18:03 10° 328° (NNW) 3,149 5.6 -24.3°
Maximum altitude 18:25:24 54° 44° (NE) 1,362 2.9 -25.6°
Enters shadow 18:26:17 51° 69° (ENE) 1,394 2.9 -25.8°
